TimeCDT,TemperatureF,Dew PointF,Humidity,Sea Level PressureIn,VisibilityMPH,Wind Direction,Wind SpeedMPH,Gust SpeedMPH,PrecipitationIn,Events,Conditions,WindDirDegrees,DateUTC
12:53 AM,68.0,53.1,59,30.02,10.0,ESE,5.8,-,N/A,,Clear,110,2012-09-02 05:53:00
1:53 AM,66.9,54.0,63,30.02,10.0,ESE,5.8,-,N/A,,Clear,120,2012-09-02 06:53:00
2:53 AM,66.2,53.6,64,30.02,10.0,SE,5.8,-,N/A,,Clear,130,2012-09-02 07:53:00
3:53 AM,64.9,55.0,70,30.01,10.0,ESE,6.9,-,N/A,,Clear,120,2012-09-02 08:53:00
4:53 AM,64.0,54.0,70,29.99,10.0,ESE,8.1,-,N/A,,Clear,120,2012-09-02 09:53:00
5:53 AM,63.0,54.0,72,29.99,10.0,ESE,4.6,-,N/A,,Clear,120,2012-09-02 10:53:00
6:53 AM,62.1,53.1,72,29.99,10.0,ESE,5.8,-,N/A,,Clear,120,2012-09-02 11:53:00
7:53 AM,64.0,52.0,65,29.99,10.0,ESE,5.8,-,N/A,,Clear,110,2012-09-02 12:53:00
8:53 AM,66.0,53.1,63,29.99,10.0,SE,8.1,-,N/A,,Clear,130,2012-09-02 13:53:00
9:53 AM,71.1,54.0,55,29.98,10.0,SE,11.5,-,N/A,,Clear,130,2012-09-02 14:53:00
10:53 AM,73.0,57.0,57,29.98,10.0,South,4.6,-,N/A,,Clear,170,2012-09-02 15:53:00
11:53 AM,77.0,60.1,56,29.96,10.0,SE,5.8,-,N/A,,Partly Cloudy,140,2012-09-02 16:53:00
12:53 PM,81.0,62.1,52,29.93,10.0,ESE,9.2,-,N/A,,Partly Cloudy,120,2012-09-02 17:53:00
1:53 PM,84.0,63.0,49,29.90,10.0,South,12.7,-,N/A,,Scattered Clouds,170,2012-09-02 18:53:00
2:53 PM,84.9,64.9,51,29.88,10.0,SSE,12.7,18.4,N/A,,Scattered Clouds,150,2012-09-02 19:53:00
3:53 PM,86.0,64.9,49,29.87,10.0,SE,10.4,-,N/A,,Mostly Cloudy,140,2012-09-02 20:53:00
4:53 PM,88.0,66.0,48,29.86,10.0,SSE,11.5,-,N/A,,Mostly Cloudy,160,2012-09-02 21:53:00
5:53 PM,87.1,66.0,49,29.84,10.0,SSE,12.7,-,N/A,,Mostly Cloudy,150,2012-09-02 22:53:00
6:53 PM,84.9,66.0,53,29.82,10.0,SE,11.5,-,N/A,,Mostly Cloudy,140,2012-09-02 23:53:00
7:53 PM,84.0,66.9,56,29.85,10.0,South,8.1,-,N/A,,Mostly Cloudy,170,2012-09-03 00:53:00
8:53 PM,81.0,66.9,62,29.85,10.0,SE,6.9,-,N/A,,Mostly Cloudy,140,2012-09-03 01:53:00
9:53 PM,80.1,66.9,64,29.84,10.0,SE,9.2,-,N/A,,Mostly Cloudy,140,2012-09-03 02:53:00
10:53 PM,80.1,66.9,64,29.84,10.0,SSE,9.2,-,N/A,,Mostly Cloudy,160,2012-09-03 03:53:00
11:53 PM,80.1,66.0,62,29.84,10.0,SSE,8.1,-,N/A,,Mostly Cloudy,160,2012-09-03 04:53:00